Location: *
(38.2753°S, 156.4124°W)
Time: 14:37:50
(UTC+00:00)

Daily predictions for brighter satellites

Satellite Brightness Start Highest point End
(mag) Time Altitude Azimuth Time Altitude Azimuth Time Altitude Azimuth
USA 59 Rocket 3.9 12:16:57 15° SW 12:20:57 18° SSW 12:27:25 10° SSE
H-2A R/B 4.2 13:08:27 21° SSE 13:08:27 21° SSE 13:10:19 10° S
SL-12 R/B(2) 4.3 12:59:05 10° SSW 13:08:28 60° E 13:14:47 10° NE
Cosmos 2263 Rocket 3.4 13:32:52 10° S 13:38:06 38° ESE 13:43:17 10° NE
Cosmos 1980 Rocket 2.9 13:41:35 50° SSE 13:41:35 50° SSE 13:45:45 10° SSE
USA 267 3.4 13:37:23 10° SE 13:43:56 61° NE 13:44:33 59° NNE
Cosmos 1821 Rocket 4.0 13:47:08 81° E 13:47:08 81° E 13:53:32 10° S
Cosmos 1238 Rocket 4.4 13:50:42 10° S 13:54:40 39° E 13:59:10 10° NNE
SL-16 R/B 3.0 13:54:09 10° SSE 14:00:16 56° ENE 14:04:06 23° N
Cosmos 1933 4.4 14:04:18 10° S 14:08:07 42° E 14:08:32 41° E
CZ-2C R/B 4.4 14:07:35 10° S 14:09:41 20° SSW 14:09:41 20° SSW
USA 59 Rocket 4.1 14:09:44 10° SSW 14:15:48 17° SSE 14:21:22 10° SE
OAO 2 Rocket 3.5 14:18:35 61° N 14:18:35 61° N 14:23:47 10° ENE
Cosmos 304 Rocket 4.3 14:17:33 10° SSW 14:23:56 43° N 14:27:11 10° NNE
Cosmos 1697 Rocket 4.4 14:24:53 18° SW 14:24:53 18° SW 14:27:34 10° S
GP-B 4.4 14:23:42 10° SSE 14:27:57 40° E 14:32:06 10° NNE
ARGOS 3.1 14:23:26 10° NNE 14:28:51 87° WNW 14:34:23 10° SSW
Cosmos 2360 Rocket 4.4 14:24:58 10° NNE 14:29:20 23° E 14:33:43 10° SE
Cosmos 521 Rocket 4.4 14:27:48 49° WNW 14:29:25 67° WSW 14:35:45 10° SSE
OAO 3 Copernicus 4.4 14:29:56 55° NNW 14:30:15 56° N 14:35:13 10° ENE
SL-08 RB Rocket 4.0 14:26:46 10° NNE 14:31:12 67° ESE 14:35:45 10° S
ATLAS 2AS CENTAUR R/B 2.6 14:29:27 42° NW 14:31:53 73° WSW 14:38:57 10° SSE
Cosmos 1862 3.5 14:33:17 56° SSW 14:33:17 56° SSW 14:36:28 10° S
Meteor 2-3 Rocket 3.7 14:32:50 36° NNW 14:35:10 68° W 14:40:56 10° S
Genesis I 3.4 14:36:10 53° NE 14:36:23 55° ENE 14:39:47 10° SE
ARIANE 5 R/B 3.2 14:37:30 10° NNE 14:42:22 55° ESE 14:47:18 10° S
Cosmos 2219 3.3 14:37:15 10° SW 14:42:39 48° WNW 14:48:01 10° N
Cosmos 2322 Rocket 3.5 14:37:34 10° N 14:42:45 39° ENE 14:47:58 10° SE
Cosmos 1174 4.0 14:42:09 47° NW 14:43:24 84° WSW 14:48:41 10° SSE
Cosmos 1486 Rocket 3.9 14:38:33 10° SSW 14:43:52 71° WNW 14:49:09 10° N
H-2A R/B 4.2 14:48:58 11° SW 14:48:58 11° SW 14:49:18 10° SW
Cosmos-2242 2.9 14:41:30 10° SSW 14:45:40 56° W 14:46:28 47° NW
ATLAS 3B R/B 4.3 14:40:34 10° SSW 14:45:58 30° SE 14:51:25 10° ENE
Cosmos 2082 3.6 14:47:04 10° SSW 14:52:38 59° WNW 14:58:08 10° N
USA 305 2.7 14:54:27 38° NNW 14:55:44 70° NE 14:59:42 10° SE
Cosmos 1844 Rocket 4.2 14:56:16 10° S 15:01:28 37° ESE 15:06:37 10° NE
USA 307 4.3 14:59:45 12° N 15:02:14 27° NE 15:05:24 10° ESE
Cosmos 1602 3.4 14:59:22 10° N 15:02:58 86° W 15:06:39 10° S
NOSS 3-1 (C) 3.0 14:56:55 10° SW 15:02:59 68° WNW 15:07:55 10° NNE
FengYun 1-2 T 4.3 14:59:57 10° N 15:05:19 52° W 15:10:50 10° SSW
SL-16 R/B 2.1 15:01:55 10° NNW 15:07:34 76° WSW 15:13:19 10° SSE
Cosmos 2278 3.8 15:04:40 16° NW 15:09:12 60° WSW 15:14:53 10° SSE
Iridium 921 4.2 15:05:57 10° N 15:09:14 89° WNW 15:12:36 10° S
Cosmos 1934 Rocket 4.1 15:03:09 10° NNW 15:09:23 55° W 15:15:36 10° S
ATLAS CENTAUR R/B 4.0 15:01:14 10° SW 15:09:36 50° SE 15:15:10 10° ENE
Cosmos 1602 Rocket 4.1 15:08:43 24° NW 15:10:42 37° WSW 15:14:47 10° S
Cosmos 2333 Rocket 3.1 15:05:49 10° N 15:11:16 52° ENE 15:16:47 10° SSE
Cosmos 2151 3.3 15:08:27 10° N 15:12:39 69° E 15:16:56 10° SSE
Okean 1-7 Rocket 4.1 15:10:24 22° NW 15:12:41 36° WSW 15:16:48 10° S
CZ-2D R/B 4.0 15:09:36 10° NNE 15:13:03 50° ESE 15:16:33 10° S
CZ-2D R/B 4.1 15:11:13 10° NNE 15:15:07 56° ESE 15:19:01 10° S
Cosmos 2123 Rocket 4.1 15:12:50 10° SSW 15:18:58 53° W 15:25:05 10° NNW
Cosmos 1666 4.4 15:20:15 14° SW 15:20:15 14° SW 15:21:20 10° SSW
UNK 4.4 15:16:40 10° S 15:20:50 33° WSW 15:24:26 13° NW
Cosmos 2263 Rocket 3.0 15:17:09 10° SW 15:21:46 27° WNW 15:26:22 10° NNW
SJ-12 3.8 15:17:54 10° NNE 15:21:52 87° W 15:25:54 10° SSW
Cosmos 1812 Rocket 4.0 15:18:04 10° SSW 15:22:19 41° W 15:26:30 10° NNW
BREEZE-M DEB (TANK) 4.4 15:19:07 13° SW 15:22:33 42° SSE 15:33:08 10° E
Cosmos 2227 4.2 15:17:43 10° SSW 15:23:35 87° WNW 15:29:20 10° NNE
Cosmos 1980 Rocket 3.9 15:23:21 13° WSW 15:24:48 14° SW 15:27:40 10° SSW
USA 267 3.9 15:20:35 10° SE 15:26:42 41° SSW 15:31:55 14° W
SL-19 R/B 4.4 15:22:38 10° NNE 15:28:17 88° ESE 15:34:21 10° SSW
ISS -1.4 15:28:29 10° N 15:31:14 23° NE 15:34:01 10° ESE
Cosmos 2221 2.5 15:32:04 10° SSW 15:36:20 60° W 15:40:34 10° N
USA 281 3.6 15:32:14 10° S 15:38:23 42° WSW 15:44:30 10° NW
Lacrosse 4 Rocket 4.3 15:36:49 10° SSE 15:38:35 12° SE 15:40:20 10° ESE
Cosmos 1953 Rocket 3.6 15:35:27 10° NNW 15:39:55 69° W 15:44:27 10° S
Meteor 2-6 Rocket 4.3 15:35:21 10° SSW 15:41:21 72° W 15:47:18 10° N
SL-16 R/B 3.7 15:38:40 10° SSW 15:43:21 23° WSW 15:48:01 10° WNW
BREEZE M DEB (TANK) 4.3 15:46:16 10° SSW 15:48:20 18° SSE 15:51:50 10° ESE
H-2A R/B 3.9 15:47:22 10° NW 15:49:03 14° W 15:50:45 10° WSW
Cosmos 1076 Rocket 3.6 15:51:33 10° NNW 15:55:52 63° W 16:00:16 10° S
Cosmos 540 Rocket 3.7 15:51:05 10° NW 15:56:05 49° WSW 16:01:09 10° S
USA 234 3.5 15:51:37 10° NE 15:58:10 81° SE 16:04:47 10° SW
Cosmos 1340 Rocket 4.3 15:55:51 10° SW 15:58:26 17° W 16:01:00 10° NW
USA 81 4.2 15:53:35 10° S 15:58:57 86° E 16:04:15 10° N
SeaSat 1 4.1 15:54:46 10° SE 15:59:25 39° ENE 16:04:00 10° N
Cosmos 1844 3.8 15:55:46 10° SSW 16:01:38 79° WNW 16:07:24 10° NNE
Cosmos 292 Rocket 3.8 15:57:10 10° SSW 16:01:59 60° WNW 16:06:43 10° N
